GLENN Weather Reports


Display with metric or nautical units.
time (UTC)temp
F
wind
direction
speed
MPH
gust
MPH
rain 1hr
in
rain 24hr
in
rain mn
in
humidity
%
barometer
mb
20260506081530 31 98 2.0 3.0 0.00 0.00 0.00 66 1019.1
20260506073020 30 111 1.0 3.0 0.00 0.00 0.00 66 1019.3
20260506071525 31 67 0.0 3.0 0.00 0.00 0.00 67 1019.3
20260506061505 32 134 2.0 4.0 0.00 0.00 0.00 65 1019.2
20260506044510 33 69 0.0 2.0 0.00 0.00 0.00 58 1019.4
20260506043015 34 83 2.0 3.0 0.00 0.00 0.00 57 1019.3
20260506041518 35 18 0.0 4.0 0.00 0.00 0.00 53 1019.2
20260506040025 36 85 1.0 5.0 0.00 0.00 0.00 51 1019.2
20260506034517 37 309 3.0 8.0 0.00 0.00 0.00 49 1019.0
20260506033011 36 250 3.0 7.0 0.00 0.00 0.00 56 1018.8
20260506031515 37 280 1.0 9.0 0.00 0.00 0.00 49 1018.8
20260506030033 37 84 3.0 10.0 0.00 0.00 0.00 46 1018.4
20260506024550 38 33 2.0 8.0 0.00 0.00 0.00 43 1018.1
20260506023013 39 26 2.0 4.0 0.00 0.00 0.00 45 1017.9
20260506021516 40 91 3.0 8.0 0.00 0.00 0.00 44 1017.7
20260506020016 42 331 0.0 4.0 0.00 0.00 0.00 43 1017.5
20260506014524 42 74 0.0 8.0 0.00 0.00 0.00 46 1017.1
20260506013037 41 360 3.0 14.0 0.00 0.00 0.00 45 1017.0
20260506011510 40 31 1.0 7.0 0.00 0.00 0.00 49 1017.0
20260506010021 40 352 3.0 7.0 0.00 0.00 0.00 48 1016.7
20260506004520 41 40 4.0 11.0 0.00 0.00 0.00 47 1016.6
20260506003033 41 134 2.0 14.0 0.00 0.00 0.00 50 1016.6
20260506001527 42 48 4.0 11.0 0.00 0.00 0.00 48 1016.3
20260506000013 42 80 2.0 9.0 0.00 0.00 0.00 47 1016.3
20260505234517 44 69 6.0 11.0 0.00 0.00 0.00 44 1016.2
20260505233021 45 39 1.0 4.0 0.00 0.00 0.00 44 1016.1
20260505231525 45 67 0.0 4.0 0.00 0.00 0.00 43 1016.0
20260505230041 46 342 5.0 11.0 0.00 0.00 0.00 37 1015.9
20260505224515 46 352 3.0 15.0 0.00 0.00 0.00 39 1015.9
20260505223020 48 267 3.0 15.0 0.00 0.00 0.00 36 1015.8
20260505221528 47 298 8.0 11.0 0.00 0.00 0.00 37 1015.7
20260505220026 47 21 4.0 12.0 0.00 0.00 0.00 40 1015.9
20260505214527 46 326 6.0 14.0 0.00 0.00 0.00 41 1015.8
20260505213021 46 307 6.0 22.0 0.00 0.00 0.00 40 1015.6
20260505211505 48 287 4.0 10.0 0.00 0.00 0.00 42 1015.9
20260505210006 48 321 3.0 7.0 0.00 0.00 0.00 40 1016.1
20260505204511 47 39 1.0 9.0 0.00 0.00 0.00 43 1016.1
20260505203014 48 340 2.0 9.0 0.00 0.00 0.00 40 1016.1
20260505201514 47 341 5.0 8.0 0.00 0.00 0.00 45 1016.3
20260505200013 45 79 3.0 10.0 0.00 0.00 0.00 44 1016.4
20260505194511 44 22 3.0 11.0 0.00 0.00 0.00 49 1016.4
20260505193013 45 52 6.0 11.0 0.00 0.00 0.00 47 1016.6
20260505191518 45 345 3.0 10.0 0.00 0.00 0.00 46 1016.6
20260505190014 44 342 4.0 9.0 0.00 0.00 0.00 46 1016.6
20260505184508 45 352 3.0 6.0 0.00 0.00 0.00 49 1016.6
20260505183010 45 360 2.0 4.0 0.00 0.00 0.00 50 1016.8
20260505181518 43 325 3.0 8.0 0.00 0.00 0.00 53 1016.8
20260505180018 42 232 5.0 12.0 0.00 0.00 0.00 51 1016.8
20260505174518 44 344 2.0 8.0 0.00 0.00 0.00 52 1016.7
20260505173032 42 19 0.0 8.0 0.00 0.00 0.00 49 1016.6
20260505171513 43 231 4.0 7.0 0.00 0.00 0.00 50 1016.6
20260505170024 42 236 3.0 6.0 0.00 0.00 0.00 50 1016.7
20260505164543 42 173 2.0 5.0 0.00 0.00 0.00 50 1016.8
20260505163021 42 227 1.0 4.0 0.00 0.00 0.00 54 1016.8
20260505161511 41 212 2.0 5.0 0.00 0.00 0.00 57 1016.7
20260505153026 39 272 0.0 4.0 0.00 0.00 0.00 58 1016.8
20260505151522 39 290 2.0 4.0 0.00 0.00 0.00 56 1016.9
20260505124528 31 326 0.0 4.0 0.00 0.00 0.00 71 1016.1
20260505123017 31 249 1.0 2.0 0.00 0.00 0.00 71 1015.8
20260505121506 31 227 3.0 5.0 0.00 0.00 0.00 70 1015.7
20260505120008 33 82 0.0 2.0 0.00 0.00 0.00 67 1015.6
20260505114527 33 88 2.0 3.0 0.00 0.00 0.00 66 1015.5
20260505113016 33 82 2.0 3.0 0.00 0.00 0.00 67 1015.4
20260505111518 34 135 3.0 4.0 0.00 0.00 0.00 64 1015.5
20260505101521 36 91 2.0 4.0 0.00 0.00 0.00 61 1015.9
20260505100029 36 88 2.0 3.0 0.00 0.00 0.00 60 1015.9
20260505094506 36 90 2.0 4.0 0.00 0.00 0.00 61 1015.8
20260505093010 36 80 2.0 3.0 0.00 0.00 0.00 63 1015.8
20260505091516 37 113 1.0 3.0 0.00 0.00 0.00 63 1015.8
20260505090031 37 99 1.0 3.0 0.00 0.00 0.00 63 1016.1
20260505084530 37 117 1.0 4.0 0.00 0.00 0.00 64 1016.1
20260505083009 36 137 2.0 6.0 0.00 0.00 0.00 66 1016.1